Date,TemperatureHighF,TemperatureAvgF,TemperatureLowF,DewpointHighF,DewpointAvgF,DewpointLowF,HumidityHigh,HumidityAvg,HumidityLow,PressureMaxIn,PressureMinIn,WindSpeedMaxMPH,WindSpeedAvgMPH,GustSpeedMaxMPH,PrecipitationSumIn
2013-1-1,15,5,-4,9,1,-5,99,86,59,0.00,40.00,10,4,14,0.00
2013-1-2,26,15,1,26,15,1,99,97,83,0.00,40.00,12,5,16,0.00
2013-1-3,28,17,8,28,17,8,99,99,94,0.00,40.00,18,10,24,0.00
2013-1-4,33,21,8,27,19,8,99,94,76,0.00,40.00,14,7,22,0.00
2013-1-5,38,26,13,38,24,-100,99,98,98,0.00,40.00,21,8,27,0.00
2013-1-6,25,17,13,22,16,13,99,96,81,0.00,40.00,19,9,26,0.00
2013-1-7,43,29,13,34,26,13,99,89,63,0.00,40.00,17,7,27,0.00
2013-1-8,40,31,18,40,27,-100,99,95,95,0.00,40.00,16,7,22,0.00
2013-1-9,40,34,27,38,29,-100,99,95,82,0.00,40.00,17,7,24,0.00
2013-1-10,38,33,25,37,32,-100,99,98,88,0.00,40.00,15,8,21,0.61
2013-1-11,50,42,34,50,34,-100,99,94,99,0.00,40.00,17,8,21,0.00
2013-1-12,52,27,17,52,21,-100,99,88,73,0.00,40.00,25,15,37,0.00
2013-1-13,17,12,8,14,9,5,99,87,81,0.00,40.00,21,12,26,0.00
2013-1-14,28,15,5,16,11,5,99,84,50,0.00,40.00,11,4,16,0.00
2013-1-15,32,21,11,20,15,11,99,80,46,0.00,40.00,11,5,16,0.00
2013-1-16,42,30,17,40,26,13,99,83,72,0.00,40.00,19,11,26,0.00
2013-1-17,31,22,14,29,18,12,99,86,54,0.00,40.00,15,6,19,0.00
2013-1-18,53,38,21,37,32,21,99,80,50,0.00,40.00,29,12,39,0.00
2013-1-19,50,38,16,39,32,-100,99,83,58,0.00,40.00,33,14,45,0.00
2013-1-20,16,11,8,12,7,3,96,84,68,0.00,40.00,26,13,32,0.02
2013-1-21,8,3,-3,6,-4,-12,95,73,58,0.00,40.00,23,16,30,0.00
2013-1-22,13,6,-4,5,-2,-6,91,72,52,0.00,40.00,13,6,17,0.00
2013-1-23,28,16,6,17,8,-6,76,67,58,0.00,40.00,27,13,34,0.00
2013-1-24,20,10,2,9,-3,-8,67,55,37,0.00,40.00,19,10,25,0.00
2013-1-25,34,22,10,23,13,4,82,66,55,0.00,40.00,26,13,32,0.00
2013-1-26,31,18,3,16,8,2,97,69,40,0.00,40.00,16,8,22,0.00
2013-1-27,37,32,28,37,25,-100,99,86,59,0.00,40.00,17,10,23,2.31
2013-1-28,43,35,31,43,28,-100,99,94,99,0.00,40.00,13,6,30,0.49
2013-1-29,54,40,32,54,32,-100,99,94,99,0.00,40.00,14,9,21,1.05
2013-1-30,33,22,14,33,18,-100,99,96,99,0.00,40.00,31,21,41,5.19
2013-1-31,16,3,0,16,0,-4,99,86,78,0.00,40.00,29,20,38,0.00
2013-2-1,18,2,-9,18,-2,-11,98,82,64,0.00,40.00,20,8,25,0.00
2013-2-2,24,17,14,24,17,13,99,98,89,0.00,40.00,20,9,24,0.01
2013-2-3,26,20,14,26,19,12,99,95,82,0.00,40.00,27,11,37,0.00
2013-2-4,25,20,12,25,19,-100,99,98,96,0.00,40.00,17,8,22,0.00
2013-2-5,37,27,14,37,25,-100,99,98,98,0.00,40.00,21,2,28,0.00
2013-2-6,40,29,13,40,21,-100,99,94,99,0.00,40.00,16,6,18,0.00
2013-2-7,35,33,29,35,31,-100,99,98,99,0.00,40.00,22,10,29,3.06
2013-2-8,31,29,27,31,28,-100,99,98,99,0.00,40.00,17,8,22,0.00
2013-2-9,33,29,28,33,23,-100,99,94,99,0.00,40.00,21,14,28,0.00
2013-2-10,47,37,31,46,26,-100,99,91,86,0.00,40.00,31,17,42,2.58
2013-2-11,33,29,26,33,24,-100,99,91,88,0.00,40.00,32,22,42,0.51
2013-2-12,40,31,25,34,26,-100,99,89,68,0.00,40.00,17,7,21,0.00
2013-2-13,45,35,25,38,32,25,99,91,68,0.00,40.00,12,6,18,0.00
2013-2-14,40,34,25,38,27,-100,99,92,78,0.00,40.00,29,14,36,0.40
2013-2-15,25,21,16,21,17,13,99,85,69,0.00,40.00,18,13,27,0.00
2013-2-16,28,17,11,21,16,11,99,93,68,0.00,40.00,12,6,16,0.00
2013-2-17,38,26,14,28,22,14,99,86,61,0.00,40.00,22,12,29,0.00
2013-2-18,44,31,14,40,28,-100,99,92,76,0.00,40.00,32,16,41,0.13
2013-2-19,19,11,3,9,4,-2,89,73,57,0.00,40.00,33,16,40,0.00
2013-2-20,24,12,0,18,5,-3,99,75,50,0.00,40.00,14,7,18,0.00
2013-2-21,26,20,11,26,19,11,99,95,80,0.00,40.00,26,15,32,0.11
2013-2-22,31,25,22,31,25,22,99,99,91,0.00,40.00,21,11,24,0.41
2013-2-23,29,21,7,24,20,7,99,92,74,0.00,40.00,14,6,20,0.00
2013-2-24,35,20,2,33,19,2,99,96,81,0.00,40.00,8,3,10,0.00
2013-2-25,39,30,21,38,22,-100,99,92,90,0.00,40.00,12,5,16,0.00
2013-2-26,32,31,29,32,27,-100,99,96,99,0.00,40.00,22,15,29,1.32
2013-2-27,31,30,28,30,25,-100,99,96,99,0.00,40.00,18,14,24,1.46
2013-2-28,32,28,25,32,24,-100,99,96,99,0.00,40.00,16,12,21,0.17
2013-3-1,28,25,21,27,24,20,99,95,71,0.00,40.00,12,8,16,0.29
2013-3-2,23,13,2,20,12,2,99,95,79,0.00,40.00,11,-8,13,0.00
2013-3-3,30,19,2,25,16,2,99,87,64,0.00,40.00,16,6,19,0.00
2013-3-4,33,28,24,33,26,-100,99,97,78,0.00,40.00,22,16,28,0.08
2013-3-5,30,27,24,30,22,-100,99,95,99,0.00,40.00,23,13,30,0.80
2013-3-6,26,22,7,26,21,7,99,99,94,0.00,40.00,17,10,22,0.00
2013-3-7,28,15,1,27,14,-100,99,98,83,0.00,40.00,13,4,17,0.00
2013-3-8,39,31,17,38,27,-100,99,96,96,0.00,40.00,16,11,22,0.42
2013-3-9,40,36,35,39,21,-100,99,88,99,0.00,40.00,22,13,27,5.83
2013-3-10,38,35,33,38,31,-100,99,96,99,0.00,40.00,19,9,24,4.27
2013-3-11,33,30,26,33,24,-100,99,95,99,0.00,40.00,23,15,30,0.78
2013-3-12,32,26,23,32,19,-100,99,92,85,0.00,40.00,28,15,36,0.66
2013-3-13,30,23,17,24,15,-100,99,85,57,0.00,40.00,19,10,24,0.00
2013-3-14,49,34,22,41,27,-100,99,89,65,0.00,40.00,16,6,19,0.01
2013-3-15,46,36,29,45,10,-100,99,81,99,0.00,40.00,16,5,21,0.00
2013-3-16,33,31,26,33,23,-100,99,92,89,0.00,40.00,26,12,32,0.00
2013-3-17,38,29,22,33,22,-100,99,86,67,0.00,40.00,19,13,25,0.00
2013-3-18,33,27,17,33,22,-100,99,91,76,0.00,40.00,31,15,40,0.53
2013-3-19,31,21,13,26,15,9,99,79,60,0.00,40.00,24,15,31,0.00
2013-3-20,23,17,12,16,11,6,88,75,61,0.00,40.00,30,20,41,0.00
2013-3-21,29,20,9,22,13,-100,99,78,47,0.00,40.00,11,4,14,0.00
2013-3-22,38,27,16,30,22,16,99,83,54,0.00,40.00,9,4,16,0.00
2013-3-23,40,32,24,31,27,23,99,82,50,0.00,40.00,12,6,16,0.52
2013-3-24,31,29,28,30,17,-100,99,90,99,0.00,40.00,18,10,22,5.02
2013-3-25,35,29,26,32,16,-100,99,86,78,0.00,40.00,20,14,27,0.01
2013-3-26,39,30,23,33,25,-100,99,87,50,0.00,40.00,14,8,17,0.00
2013-3-27,44,34,23,35,26,-100,99,82,50,0.00,40.00,7,2,12,0.00
2013-3-28,52,37,23,43,25,-100,99,80,52,0.00,40.00,11,4,14,0.00
2013-3-29,57,42,28,42,28,-100,99,74,45,0.00,40.00,12,4,15,0.00
2013-3-30,49,44,36,49,6,-100,99,74,91,0.00,40.00,18,7,25,1.16
2013-3-31,49,39,31,46,26,-100,99,80,63,0.00,40.00,26,12,37,0.00
2013-4-1,37,29,23,27,22,-100,99,79,54,0.00,40.00,21,12,27,0.00
2013-4-2,42,30,19,27,22,-100,99,78,48,0.00,40.00,19,7,29,0.00
2013-4-3,47,33,19,31,21,17,99,69,30,0.00,40.00,11,4,17,0.00
2013-4-4,60,43,26,44,32,23,99,69,42,0.00,40.00,18,7,25,0.00
2013-4-5,55,43,29,38,27,-100,99,65,37,0.00,40.00,16,9,21,0.00
2013-4-6,66,53,43,56,35,-100,99,64,51,0.00,40.00,24,15,37,0.00
2013-4-7,63,48,35,48,32,-100,99,76,53,0.00,40.00,18,8,25,0.00
2013-4-8,74,60,49,62,36,-100,99,73,52,0.00,40.00,17,7,21,1.29
2013-4-9,56,49,42,56,8,-100,99,72,99,0.00,40.00,26,16,90,0.83
2013-4-10,42,38,36,42,25,-100,99,89,99,0.00,40.00,32,15,80,4.77
2013-4-11,45,40,36,45,12,-100,99,79,99,0.00,40.00,19,8,26,1.98
2013-4-12,39,36,34,37,31,-100,99,93,81,0.00,40.00,22,14,29,0.16
2013-4-13,49,39,31,43,31,-100,99,81,55,0.00,40.00,18,10,27,0.07
2013-4-14,72,52,38,59,21,-100,99,71,52,0.00,40.00,28,16,93,1.56
2013-4-15,51,43,38,50,23,-100,99,79,58,0.00,40.00,20,8,27,0.11
2013-4-16,50,41,31,41,32,-100,99,80,55,0.00,40.00,16,9,22,0.00
2013-4-17,48,43,39,47,23,-100,99,83,79,0.00,40.00,44,15,152,6.35
2013-4-18,54,42,34,54,10,-100,99,77,99,0.00,40.00,34,14,43,2.70
2013-4-19,38,34,31,35,28,-100,99,87,74,0.00,40.00,29,20,37,0.14
2013-4-20,47,37,26,32,26,-100,99,72,39,0.00,40.00,11,6,16,0.00
2013-4-21,64,49,37,49,39,31,84,70,55,0.00,40.00,26,16,32,0.00
2013-4-22,65,58,51,53,38,-100,99,66,53,0.00,40.00,19,11,24,0.38
2013-4-23,51,38,34,51,26,-100,99,84,70,0.00,40.00,22,9,28,0.00
2013-4-24,53,41,28,44,28,-100,99,69,34,0.00,40.00,20,-3,28,0.27
2013-4-25,58,45,32,43,32,-100,99,67,35,0.00,40.00,17,10,24,0.00
2013-4-26,68,56,45,53,44,-100,99,66,51,0.00,40.00,23,12,33,0.00
2013-4-27,65,53,41,53,43,-100,99,80,58,0.00,40.00,13,5,22,0.00
2013-4-28,74,58,38,56,45,-100,99,73,46,0.00,40.00,12,5,16,0.00
2013-4-29,81,64,52,67,44,-100,99,76,55,0.00,40.00,14,7,21,0.04
2013-4-30,87,76,62,68,54,-100,99,58,36,0.00,40.00,29,14,38,0.06
2013-5-1,67,55,42,54,46,-100,99,76,55,0.00,40.00,32,18,42,0.00
2013-5-2,42,36,33,40,32,-100,99,95,90,0.00,40.00,32,21,55,6.22
2013-5-3,38,34,31,37,30,-100,99,96,99,0.00,40.00,19,0,26,11.69
2013-5-4,64,52,37,64,32,-100,99,86,99,0.00,40.00,17,10,22,5.24
2013-5-5,70,57,46,64,24,-100,99,74,72,0.00,40.00,14,9,21,0.00
2013-5-6,74,61,49,64,18,-100,99,58,38,0.00,40.00,10,4,12,0.00
2013-5-7,78,64,49,60,41,-100,99,64,36,0.00,40.00,7,3,11,0.00
2013-5-8,77,62,47,65,32,-100,99,70,47,0.00,40.00,19,3,24,0.04
2013-5-9,67,61,58,67,15,-100,99,71,99,0.00,40.00,16,6,23,0.54
2013-5-10,62,54,49,59,30,-100,99,82,80,0.00,40.00,17,-5,25,0.30
2013-5-11,55,50,39,53,33,-100,99,63,33,0.00,40.00,31,17,43,0.00
2013-5-12,59,46,34,37,30,26,92,58,30,0.00,40.00,20,8,27,0.00
2013-5-13,73,55,31,52,42,31,99,66,33,0.00,40.00,17,6,29,0.00
2013-5-14,95,77,56,70,56,-100,99,59,33,0.00,40.00,21,10,32,0.00
2013-5-15,79,70,57,59,50,44,72,51,30,0.00,40.00,17,8,26,0.00
2013-5-16,83,68,53,66,33,-100,99,62,39,0.00,40.00,12,6,21,0.04
2013-5-17,80,70,61,71,48,-100,99,76,60,0.00,40.00,16,7,21,0.00
2013-5-18,83,72,60,73,56,-100,99,79,60,0.00,40.00,16,8,22,0.00
2013-5-19,85,73,62,78,53,-100,99,82,58,0.00,40.00,32,6,103,0.68
2013-5-20,80,70,61,70,60,-100,99,83,61,0.00,40.00,19,10,50,0.08
2013-5-21,71,64,58,64,41,-100,99,77,68,0.00,40.00,17,8,50,0.00
2013-5-22,65,57,53,63,42,-100,99,89,91,0.00,40.00,21,8,28,0.04
2013-5-23,67,59,52,58,50,-100,99,80,51,0.00,40.00,18,12,24,0.08
2013-5-24,68,56,41,55,40,-100,99,71,40,0.00,40.00,16,8,23,0.06
2013-5-25,58,52,49,55,49,-100,99,95,80,0.00,40.00,19,12,152,2.22
2013-5-26,57,53,50,56,36,-100,99,88,99,0.00,40.00,24,13,60,4.31
2013-5-27,70,62,56,70,40,-100,99,86,99,0.00,40.00,27,10,37,0.17
2013-5-28,76,68,63,76,40,-100,99,82,99,0.00,40.00,12,6,24,0.65
2013-5-29,82,70,63,80,49,-100,99,86,91,0.00,40.00,19,11,31,2.37
2013-5-30,78,70,63,73,48,-100,99,85,82,0.00,40.00,21,12,32,0.25
2013-5-31,75,68,62,71,42,-100,99,78,76,0.00,40.00,21,10,30,0.00
2013-6-1,66,64,60,66,48,-100,99,85,78,0.00,40.00,14,7,16,0.00
2013-6-3,71,64,48,58,50,-100,99,65,50,0.00,40.00,12,5,21,0.00
2013-6-4,64,59,56,64,37,-100,99,83,83,0.00,40.00,14,8,32,0.19
2013-6-5,65,61,56,65,36,-100,99,83,99,0.00,40.00,14,5,19,1.38
2013-6-6,68,59,51,67,33,-100,99,81,86,0.00,40.00,12,6,17,0.00
2013-6-7,69,62,54,63,32,-100,99,75,69,0.00,40.00,10,5,14,0.00
2013-6-8,73,64,51,65,46,-100,99,76,64,0.00,40.00,12,5,16,0.06
2013-6-9,73,66,58,71,54,-100,99,88,81,0.00,40.00,19,9,28,0.00
2013-6-10,78,66,58,73,36,-100,99,77,73,0.00,40.00,12,4,17,0.07
2013-6-11,84,69,59,77,31,-100,99,72,77,0.00,40.00,12,5,17,0.00
2013-6-12,88,77,67,82,32,-100,99,68,80,0.00,40.00,29,15,39,0.04
2013-6-13,77,68,63,70,9,-100,99,61,74,0.00,40.00,20,11,27,0.00
2013-6-15,80,73,65,80,41,-100,99,81,99,0.00,40.00,15,8,27,0.00
2013-6-16,85,74,63,75,35,-100,99,63,40,0.00,40.00,11,5,14,0.00
2013-6-17,88,71,56,71,28,-100,99,59,44,0.00,40.00,17,4,21,0.00
2013-6-18,80,70,59,67,45,-100,99,69,59,0.00,40.00,12,6,17,0.00
2013-6-19,84,70,60,69,52,-100,99,76,57,0.00,40.00,13,7,19,0.00
2013-6-20,88,71,63,74,54,-100,99,79,61,0.00,40.00,18,7,24,0.00
2013-6-22,91,84,75,81,73,-100,99,82,73,0.00,40.00,16,10,24,0.00
2013-6-23,80,74,67,80,48,-100,99,84,79,0.00,40.00,24,9,32,0.05
2013-6-24,73,69,66,73,50,-100,99,88,99,0.00,40.00,19,8,96,1.60
2013-6-25,88,74,67,81,51,-100,99,85,79,0.00,40.00,11,6,17,0.00
2013-6-26,87,75,67,84,50,-100,99,84,87,0.00,40.00,23,5,44,0.06
2013-6-27,85,76,66,77,61,-100,99,82,65,0.00,40.00,17,7,23,0.00
2013-6-28,83,74,65,67,61,-100,99,73,53,0.00,40.00,27,12,37,0.00
2013-6-29,73,67,63,71,51,-100,99,87,84,0.00,40.00,33,11,72,0.07
2013-6-30,78,69,59,64,57,-100,99,75,51,0.00,40.00,14,9,20,0.00
2013-7-1,79,67,54,65,45,-100,99,68,44,0.00,40.00,16,7,24,0.00
2013-7-2,83,69,56,69,58,-100,99,79,50,0.00,40.00,11,4,16,0.03
2013-7-3,80,69,58,67,58,-100,99,76,44,0.00,40.00,9,3,14,0.00
2013-7-4,86,70,57,68,57,-100,99,78,51,0.00,40.00,11,4,15,0.03
2013-7-5,87,71,60,71,42,-100,99,72,54,0.00,40.00,11,5,19,0.00
2013-7-6,88,73,65,74,55,-100,99,82,62,0.00,40.00,11,6,16,0.00
2013-7-7,90,77,67,78,64,-100,99,83,62,0.00,40.00,14,7,23,0.00
2013-7-8,88,79,74,83,58,-100,99,83,80,0.00,40.00,13,5,16,0.11
2013-7-9,88,77,72,85,45,-100,99,80,86,0.00,40.00,12,4,19,0.17
2013-7-10,80,72,62,78,55,-100,99,77,57,0.00,40.00,15,7,24,0.00
2013-7-11,81,68,57,68,39,-100,99,72,56,0.00,40.00,9,4,17,0.00
2013-7-12,83,70,58,68,55,-100,99,77,54,0.00,40.00,14,7,20,0.06
2013-7-13,73,68,61,72,59,-100,99,91,87,0.00,40.00,11,4,17,0.11
2013-7-14,84,70,59,75,56,-100,99,84,63,0.00,40.00,10,4,17,0.00
2013-7-15,86,71,63,81,54,-100,99,87,81,0.00,40.00,6,3,12,0.00
2013-7-16,90,75,70,80,59,-100,99,89,71,0.00,40.00,10,2,13,0.00
2013-7-17,88,75,71,83,64,-100,99,92,80,0.00,40.00,6,2,11,0.00
2013-7-18,90,79,72,81,73,-100,99,90,67,0.00,40.00,12,4,17,0.01
2013-7-19,90,78,70,80,66,-100,99,84,63,0.00,40.00,14,7,21,0.00
2013-7-20,87,69,58,73,49,-100,99,80,50,0.00,40.00,10,3,14,0.00
2013-7-21,80,71,64,76,52,-100,99,87,79,0.00,40.00,8,2,34,0.16
2013-7-22,87,67,61,77,35,-100,99,80,99,0.00,40.00,19,4,33,0.08
2013-7-26,74,74,74,74,74,74,99,99,99,0.00,40.00,9,9,12,0.00
2013-8-1,83,74,68,72,-3,-100,99,57,99,0.00,40.00,16,4,19,0.10
2013-8-2,75,66,63,70,-24,-100,99,45,99,0.00,40.00,12,3,19,0.62
2013-8-3,76,62,56,65,-1,-100,99,62,99,0.00,40.00,9,3,14,0.00
2013-8-4,79,62,51,65,-24,-100,99,48,99,0.00,40.00,9,2,12,0.00
2013-8-5,80,66,60,78,-5,-100,99,57,99,0.00,40.00,15,4,19,0.04
2013-8-6,87,72,61,80,-21,-100,99,47,99,0.00,40.00,7,-27,14,0.00
2013-8-7,77,70,63,75,-9,-100,99,53,99,0.00,40.00,15,5,28,0.00
2013-8-8,80,62,54,67,-19,-100,99,50,99,0.00,40.00,6,2,9,0.00
2013-8-9,77,66,59,72,-44,-100,99,34,99,0.00,40.00,11,2,17,0.00
2013-8-10,79,61,52,66,-4,-100,99,60,99,0.00,40.00,4,2,7,0.00
2013-8-11,81,68,62,72,-19,-100,99,49,99,0.00,40.00,12,4,15,0.00
2013-8-12,80,69,60,73,-19,-100,99,48,99,0.00,40.00,12,4,17,0.01
2013-8-13,63,54,53,60,-9,-100,99,63,99,0.00,40.00,9,4,12,0.00
2013-8-14,73,50,46,51,25,-100,99,84,99,0.00,40.00,2,1,4,0.00
2013-8-15,76,39,53,58,-37,-100,99,45,99,0.00,40.00,9,2,12,0.00
2013-8-16,62,47,48,62,-49,-100,99,38,99,0.00,40.00,5,2,11,0.00
2013-8-17,72,52,50,65,0,-100,99,64,99,0.00,40.00,6,-49,8,0.00
2013-8-21,78,72,67,76,-15,-100,99,50,99,0.00,40.00,6,3,8,0.00
2013-8-22,77,71,67,77,17,-100,99,68,99,0.00,40.00,6,-60,11,0.10
2013-8-23,83,68,60,73,-16,-100,99,50,99,0.00,40.00,9,3,12,0.00
2013-8-24,79,66,67,78,-34,-100,99,38,99,0.00,40.00,9,-50,13,0.00
2013-8-25,78,73,68,76,-3,-100,99,56,99,0.00,40.00,9,6,14,0.00
2013-8-26,80,73,69,80,32,-100,99,76,99,0.00,40.00,6,4,7,0.00
2013-8-27,75,73,73,75,39,-100,99,79,99,0.00,40.00,7,4,10,0.00
2013-8-28,84,80,78,84,45,-100,99,79,99,0.00,40.00,11,9,14,0.00
2013-9-6,71,66,63,69,37,-100,99,82,99,0.00,40.00,10,3,14,0.00
2013-9-10,85,78,75,75,17,-100,99,66,99,0.00,40.00,8,5,12,0.00
2013-9-11,74,70,63,74,62,-100,99,94,99,0.00,40.00,6,2,9,0.03
2013-9-12,62,59,54,61,19,-100,99,74,99,0.00,40.00,5,2,7,0.00
2013-9-13,53,49,44,53,24,-100,99,82,99,0.00,40.00,5,3,6,0.00
2013-9-14,66,40,38,44,-3,-100,99,69,99,0.00,40.00,8,2,13,0.00
2013-9-15,59,56,51,59,43,-100,99,91,99,0.00,40.00,7,4,10,0.00
2013-9-16,55,51,48,55,51,48,99,99,99,0.00,40.00,8,3,12,0.00
2013-9-20,66,59,50,66,17,-100,99,73,99,0.00,40.00,12,6,18,0.00
2013-9-21,51,44,43,51,39,-100,99,94,99,0.00,40.00,6,3,10,0.00
2013-9-22,65,47,41,58,-7,-100,99,64,99,0.00,40.00,11,2,15,0.00
2013-9-23,64,53,48,58,41,-100,99,92,99,0.00,40.00,8,2,12,0.00
2013-9-24,69,53,46,62,46,-100,99,94,99,0.00,40.00,7,3,13,0.00
2013-9-25,69,54,47,62,36,-100,99,89,99,0.00,40.00,9,5,14,0.00
2013-9-26,71,59,53,70,17,-100,99,73,99,0.00,40.00,9,5,14,0.00
2013-10-13,41,37,32,41,37,32,99,99,99,0.00,40.00,3,2,4,0.00
2013-10-14,55,36,31,32,5,-100,99,79,99,0.00,40.00,11,4,21,0.03
2013-10-15,57,54,49,57,54,49,99,99,99,0.00,40.00,19,12,29,0.00
2013-10-16,49,47,46,49,27,-100,99,86,99,0.00,40.00,13,8,19,0.00
2013-10-17,46,44,40,45,13,-100,99,78,99,0.00,40.00,4,2,6,0.00
2013-10-18,47,43,42,45,2,-100,99,71,99,0.00,40.00,19,11,26,0.00
2013-10-19,48,35,34,40,18,-100,99,85,99,0.00,40.00,12,6,19,0.00
2013-10-24,33,30,26,33,30,26,99,99,99,0.00,40.00,9,3,14,0.00
2013-10-25,29,24,22,29,24,22,99,99,99,0.00,40.00,3,2,4,0.00
2013-10-26,31,20,29,31,-13,-100,99,66,99,0.00,40.00,1,1,2,0.00
2013-10-27,36,26,23,36,26,23,99,99,99,0.00,40.00,4,1,4,0.00
2013-10-28,54,36,35,48,32,-100,99,98,79,0.00,40.00,16,8,19,0.00
2013-10-29,55,42,37,49,33,-100,99,89,80,0.00,40.00,12,8,19,0.00
2013-10-30,59,54,51,58,-14,-100,99,55,99,0.00,40.00,17,8,22,0.11
2013-10-31,61,48,42,61,13,-100,99,76,99,0.00,40.00,14,7,20,0.14
2013-11-1,46,44,42,46,34,-100,99,92,99,0.00,40.00,8,6,12,0.00
2013-11-2,50,36,29,41,4,-100,99,74,99,0.00,40.00,18,8,26,0.00
2013-11-3,53,32,28,33,12,-100,99,86,99,0.00,40.00,19,3,26,0.00
2013-11-4,50,47,44,50,1,-100,99,68,99,0.00,40.00,17,7,24,0.11
2013-11-5,57,49,44,55,18,-100,99,79,99,0.00,40.00,17,9,24,0.77
2013-11-6,57,41,27,57,-22,-100,99,56,99,0.00,40.00,20,12,27,0.51
2013-11-7,36,30,24,36,30,24,99,99,99,0.00,40.00,10,-56,16,0.00
2013-11-8,46,31,26,32,7,-100,99,82,99,0.00,40.00,15,5,20,0.00
2013-11-9,54,39,42,-100,-100,-100,0,0,100,0.00,40.00,14,11,24,0.00
2013-11-10,44,34,26,33,-8,-100,99,70,99,0.00,40.00,11,7,14,0.00
2013-11-11,24,24,24,-100,-100,-100,0,0,100,0.00,40.00,15,15,24,0.00
2013-11-12,17,14,11,17,14,11,99,99,99,0.00,40.00,9,6,13,0.00
2013-11-13,17,16,16,17,16,16,99,99,99,0.00,40.00,4,3,5,0.00
2013-11-15,31,31,31,31,31,31,99,99,99,0.00,40.00,3,3,3,0.00
2013-11-16,62,49,40,60,-5,-100,99,62,99,0.00,40.00,20,12,32,0.00
2013-11-17,56,50,39,54,-32,-100,99,46,99,0.00,40.00,21,9,30,0.88
2013-11-18,39,33,24,38,-10,-100,99,68,99,0.00,40.00,16,6,22,0.00
2013-11-24,6,2,1,6,2,1,99,99,99,0.00,40.00,3,1,4,0.00
2013-11-25,31,29,23,31,29,23,99,99,99,0.00,40.00,6,6,9,0.00
2013-11-26,29,20,12,29,-12,-100,99,72,99,0.00,40.00,23,8,33,0.00
2013-11-27,11,9,7,11,9,7,99,99,99,0.00,40.00,7,6,11,0.00
2013-11-28,18,14,11,18,14,11,99,99,99,0.00,40.00,8,2,10,0.00
2013-11-29,13,9,6,13,9,6,99,99,99,0.00,40.00,3,1,4,0.00
2013-11-30,35,26,24,35,21,-100,99,94,99,0.00,40.00,9,5,11,0.00
2013-12-1,41,30,25,31,12,-100,99,86,99,0.00,40.00,9,4,11,0.00
2013-12-2,40,34,31,37,5,-100,99,78,99,0.00,40.00,13,6,19,0.38
2013-12-3,40,37,35,40,24,-100,99,90,99,0.00,40.00,7,4,10,0.00
2013-12-4,43,34,21,43,16,-100,99,87,99,0.00,40.00,21,8,26,0.00
2013-12-5,21,18,11,21,-5,-100,99,79,99,0.00,40.00,17,16,27,0.00
2013-12-7,0,0,0,-1,-50,-100,99,50,99,0.00,40.00,9,8,16,0.00
2013-12-8,19,18,17,19,18,17,99,99,99,0.00,40.00,9,4,12,0.12
2013-12-10,-3,-4,-5,-3,-4,-5,99,99,99,0.00,40.00,10,9,12,0.01
2013-12-11,16,4,-9,16,4,-9,99,99,99,0.00,40.00,16,5,20,0.04
2013-12-12,12,8,-5,12,8,-5,99,99,99,0.00,40.00,6,1,6,0.00
2013-12-13,24,13,5,24,3,-100,99,91,99,0.00,40.00,17,6,22,0.00
2013-12-14,24,17,13,24,2,-100,99,85,99,0.00,40.00,19,14,25,0.00
2013-12-15,11,9,6,11,9,6,99,99,99,0.00,40.00,12,11,17,0.00
2013-12-16,22,20,18,22,9,-100,99,90,99,0.00,40.00,11,6,19,0.00
2013-12-17,28,19,14,28,19,14,99,99,99,0.00,40.00,14,5,19,0.00
2013-12-18,42,23,13,36,1,-100,99,83,99,0.00,40.00,10,3,17,0.00
2013-12-19,34,27,23,34,22,-100,99,95,99,0.00,40.00,15,7,22,2.06
2013-12-20,29,24,22,29,24,22,99,99,99,0.00,40.00,8,4,10,0.00
2013-12-26,32,20,12,30,15,-100,99,95,99,0.00,40.00,6,2,7,0.00
2013-12-27,40,22,13,24,-9,-100,99,77,99,0.00,40.00,14,4,20,0.00
2013-12-28,46,32,30,37,-9,-100,99,69,99,0.00,40.00,19,7,30,0.00
2013-12-29,31,15,-3,30,15,-3,99,99,99,0.00,40.00,26,21,34,0.00
2013-12-30,8,-1,-7,8,-1,-7,99,99,99,0.00,40.00,9,4,11,0.03
2013-12-31,8,2,-10,8,2,-10,99,99,99,0.00,40.00,14,6,18,0.00
2014-1-1,9,8,6,9,8,6,99,99,99,0.00,40.00,15,12,20,0.00
2014-1-2,7,4,-5,7,4,-5,99,99,99,0.00,40.00,14,11,19,0.00